EW1181 Weather Reports


time (UTC)temp
F
wind
direction
speed
knots
gust
knots
rain 1hr
in
rain 24hr
in
rain mn
in
humidity
%
barometer
mb
20260508021015 43 0.0 0.0 0.00 0.06 0.00 98 1014.9
20260508020015 43 0.0 0.0 0.00 0.06 0.00 98 1014.8
20260508015016 43 0.0 0.9 0.00 0.06 0.00 98 1014.8
20260508014015 43 0.0 0.9 0.00 0.06 0.00 98 1014.8
20260508013015 43 0.0 0.0 0.00 0.06 0.00 97 1014.8
20260508012036 43 0.0 0.0 0.00 0.06 0.00 97 1014.8
20260508011015 44 0.0 0.0 0.00 0.06 0.00 96 1014.9
20260508010015 44 0.0 0.0 0.00 0.06 0.00 96 1015.0
20260508005035 44 0.0 0.0 0.00 0.06 0.00 95 1015.0
20260508004015 45 0.0 0.0 0.00 0.06 0.00 93 1015.0
20260508003037 45 0.0 0.0 0.00 0.06 0.00 93 1015.1
20260508002017 46 0.0 0.0 0.00 0.06 0.00 92 1015.2
20260508001017 47 135 0.9 2.6 0.00 0.06 0.00 92 1015.2
20260508000017 47 113 1.7 2.6 0.00 0.06 0.00 93 1015.2
20260507235015 47 113 0.9 2.6 0.00 0.06 0.00 93 1015.1
20260507234037 47 0.0 1.7 0.00 0.06 0.00 92 1015.1
20260507233017 47 0.0 1.7 0.00 0.06 0.00 93 1015.1
20260507232017 47 0.0 0.0 0.00 0.06 0.00 93 1015.2
20260507231017 47 0.0 0.0 0.00 0.06 0.00 93 1015.2
20260507230017 47 0.0 0.9 0.00 0.06 0.06 92 1015.2
20260507225016 47 0.0 0.0 0.00 0.06 0.06 92 1015.1
20260507224015 47 0.0 0.9 0.00 0.06 0.06 93 1015.1
20260507223016 47 0.0 0.0 0.00 0.06 0.06 93 1015.1
20260507222016 47 0.0 0.0 0.00 0.06 0.06 92 1015.0
20260507221017 47 0.0 0.0 0.00 0.06 0.06 92 1015.1
20260507220016 47 0.0 0.0 0.00 0.06 0.06 91 1014.9
20260507215015 48 0.0 0.0 0.00 0.06 0.06 90 1015.0
20260507214015 49 135 0.9 4.3 0.00 0.06 0.06 89 1014.9
20260507213016 49 68 3.5 6.1 0.00 0.06 0.06 89 1014.9
20260507212016 49 68 3.5 6.1 0.00 0.06 0.06 88 1014.9
20260507211035 49 68 2.6 4.3 0.00 0.06 0.06 88 1014.8
20260507210015 49 68 2.6 6.1 0.00 0.06 0.06 88 1014.8
20260507205016 49 45 2.6 5.2 0.00 0.06 0.06 88 1014.6
20260507204017 49 68 2.6 6.1 0.00 0.06 0.06 87 1014.6
20260507203015 50 113 2.6 5.2 0.00 0.06 0.06 87 1014.5
20260507202015 50 135 2.6 7.8 0.00 0.06 0.06 86 1014.4
20260507201015 50 113 3.5 7.0 0.00 0.06 0.06 85 1014.2
20260507200039 51 113 5.2 10.4 0.00 0.06 0.06 84 1014.2
20260507195015 51 90 4.3 10.4 0.00 0.06 0.06 84 1014.2
20260507194039 52 113 3.5 8.7 0.00 0.06 0.06 83 1014.1
20260507193019 52 135 4.3 10.4 0.00 0.06 0.06 82 1014.0
20260507192017 52 135 4.3 7.8 0.00 0.06 0.06 82 1014.0
20260507191017 52 135 4.3 9.6 0.00 0.06 0.06 81 1013.9
20260507190019 52 135 5.2 13.0 0.00 0.06 0.06 81 1013.9
20260507185017 52 135 6.1 13.0 0.00 0.06 0.06 80 1013.8
20260507184037 52 135 6.1 11.3 0.00 0.06 0.06 79 1013.8
20260507183017 53 158 7.0 13.0 0.00 0.06 0.06 79 1013.9
20260507182019 53 135 5.2 13.0 0.00 0.06 0.06 79 1013.9
20260507181040 54 135 6.1 11.3 0.00 0.06 0.06 78 1013.8
20260507180017 54 135 7.0 14.8 0.00 0.06 0.06 78 1013.7
20260507175017 53 135 9.6 17.4 0.00 0.06 0.06 78 1013.6
20260507174017 53 135 10.4 17.4 0.00 0.06 0.06 78 1013.7
20260507173017 53 135 9.6 18.2 0.00 0.06 0.06 77 1013.7
20260507172017 54 158 11.3 20.0 0.00 0.06 0.06 76 1013.7
20260507171017 54 135 12.2 19.1 0.00 0.06 0.06 73 1013.6
20260507170017 55 158 10.4 19.1 0.00 0.06 0.06 75 1013.6
20260507165017 54 135 11.3 19.1 0.00 0.06 0.06 77 1013.6
20260507164017 54 158 13.0 19.1 0.00 0.06 0.06 78 1013.5
20260507163018 54 135 13.9 20.9 0.00 0.06 0.06 77 1013.6
20260507162019 54 158 12.2 19.1 0.00 0.06 0.06 77 1013.7
20260507161019 55 135 12.2 20.9 0.00 0.06 0.06 76 1013.7
20260507160040 55 135 11.3 19.1 0.00 0.06 0.06 75 1013.7
20260507155037 55 158 11.3 20.9 0.00 0.06 0.06 74 1013.6
20260507154017 55 135 11.3 18.2 0.00 0.06 0.06 71 1013.6
20260507153019 56 135 11.3 18.2 0.00 0.06 0.06 74 1013.5
20260507152017 54 135 12.2 20.9 0.00 0.06 0.06 72 1013.4
20260507151017 54 158 13.0 22.6 0.00 0.06 0.06 77 1013.5
20260507150017 54 135 13.0 20.9 0.00 0.06 0.06 77 1013.5
20260507145037 54 135 13.0 20.9 0.00 0.06 0.06 74 1013.5
20260507144037 55 135 11.3 19.1 0.00 0.06 0.06 73 1013.6
20260507143019 56 135 11.3 21.7 0.00 0.06 0.06 74 1013.6
20260507142017 56 135 12.2 20.0 0.00 0.06 0.06 71 1013.6
20260507141017 57 135 10.4 18.2 0.00 0.06 0.06 69 1013.6
20260507140017 57 158 10.4 18.2 0.00 0.06 0.06 70 1013.6
20260507135039 56 135 9.6 19.1 0.00 0.06 0.06 71 1013.7
20260507134017 56 135 10.4 20.0 0.00 0.06 0.06 71 1013.6
20260507133017 56 135 10.4 17.4 0.00 0.06 0.06 72 1013.6
20260507132037 56 135 10.4 17.4 0.00 0.06 0.06 72 1013.5
20260507131018 56 135 8.7 19.1 0.00 0.06 0.06 74 1013.7
20260507130057 56 135 7.8 19.1 0.00 0.06 0.06 73 1013.8
20260507125016 56 68 9.6 18.2 0.00 0.06 0.06 73 1013.8
20260507124016 56 158 7.8 15.6 0.00 0.06 0.06 72 1013.9
20260507123017 55 158 7.8 14.8 0.00 0.06 0.06 72 1013.9
20260507122016 55 135 6.1 12.2 0.00 0.06 0.06 73 1014.0
20260507121016 55 158 7.8 13.9 0.00 0.06 0.06 74 1014.0
20260507120016 55 158 7.8 13.0 0.00 0.06 0.06 73 1014.0
20260507115016 55 135 7.0 12.2 0.00 0.06 0.06 73 1014.0
20260507114018 54 135 8.7 14.8 0.00 0.06 0.06 73 1014.0
20260507113016 55 158 7.8 13.0 0.00 0.06 0.06 75 1014.0
20260507112017 55 158 7.8 15.6 0.00 0.06 0.06 76 1014.0
20260507111017 55 135 7.8 15.6 0.00 0.06 0.06 76 1014.0
20260507110016 54 135 8.7 15.6 0.00 0.06 0.06 76 1014.1
20260507105038 54 135 7.8 16.5 0.00 0.06 0.06 81 1014.1
20260507104017 53 135 7.8 13.9 0.00 0.06 0.06 85 1014.1
20260507103018 51 135 7.8 13.9 0.00 0.06 0.06 97 1014.1
20260507102016 51 135 7.8 12.2 0.00 0.06 0.06 98 1014.1
20260507101016 51 135 7.0 12.2 0.02 0.06 0.06 96 1014.1
20260507100017 51 68 5.2 13.9 0.05 0.06 0.06 97 1014.1
20260507095016 51 135 4.3 11.3 0.05 0.06 0.06 98 1014.1
20260507094018 51 113 3.5 7.8 0.05 0.06 0.06 99 1014.1
20260507093016 50 68 5.2 9.6 0.05 0.06 0.06 99 1014.1
20260507092016 50 113 2.6 9.6 0.06 0.06 0.06 98 1014.1
20260507091016 51 68 5.2 10.4 0.03 0.03 0.03 96 1014.1
20260507090016 51 45 5.2 9.6 0.01 0.01 0.01 94 1014.1
20260507085016 50 45 4.3 10.4 0.01 0.01 0.01 95 1014.0
20260507084016 50 68 3.5 8.7 0.01 0.01 0.01 95 1014.0
20260507083036 50 68 5.2 12.2 0.01 0.01 0.01 93 1014.1
20260507082018 51 68 4.3 10.4 0.00 0.00 0.00 91 1014.1
20260507081016 51 68 6.1 14.8 0.00 0.00 0.00 87 1014.1
20260507080038 52 68 7.8 14.8 0.00 0.00 0.00 79 1014.0
20260507075016 53 68 5.2 11.3 0.00 0.00 0.00 78 1013.9
20260507074016 52 68 6.1 13.0 0.00 0.00 0.00 77 1013.8
20260507073019 52 68 3.5 7.8 0.00 0.00 0.00 80 1013.8
20260507072020 52 68 3.5 7.0 0.00 0.00 0.00 82 1013.8
20260507071016 51 45 4.3 7.8 0.00 0.00 0.00 84 1013.8
20260507070016 51 45 2.6 6.1 0.00 0.00 0.00 86 1013.7
20260507065038 51 45 2.6 7.0 0.00 0.00 0.00 86 1013.7
20260507064016 51 45 2.6 7.0 0.00 0.00 0.00 85 1013.8
20260507063016 52 68 1.7 3.5 0.00 0.00 0.00 85 1013.9
20260507062036 50 45 2.6 5.2 0.00 0.00 0.00 88 1013.9
20260507061016 48 0 2.6 4.3 0.00 0.00 0.00 89 1013.9
20260507060036 47 0.0 2.6 0.00 0.00 0.00 90 1013.9
20260507055017 46 0.0 0.9 0.00 0.00 0.00 93 1013.9
20260507054016 46 0.0 0.9 0.00 0.00 0.00 92 1013.8
20260507053019 47 0.0 2.6 0.00 0.00 0.00 90 1013.7
20260507052039 46 68 0.9 2.6 0.00 0.00 0.00 91 1013.8
20260507051017 47 0.0 2.6 0.00 0.00 0.00 89 1013.7
20260507050036 47 45 1.7 3.5 0.00 0.00 0.00 90 1013.8
20260507045056 46 45 0.9 2.6 0.00 0.00 0.00 91 1013.7
20260507044017 46 0.0 0.0 0.00 0.00 0.00 92 1013.8
20260507043016 46 0.0 0.0 0.00 0.00 0.00 90 1013.7
20260507042016 47 0.0 0.9 0.00 0.00 0.00 89 1013.8
20260507041036 48 45 2.6 6.1 0.00 0.00 0.00 87 1013.7
20260507040017 48 45 1.7 3.5 0.00 0.00 0.00 87 1013.7
20260507035017 48 113 0.9 2.6 0.00 0.00 0.00 87 1013.9
20260507034016 48 68 0.9 2.6 0.00 0.00 0.00 87 1013.8
20260507033016 49 68 1.7 5.2 0.00 0.00 0.00 87 1013.9
20260507032016 49 45 1.7 4.3 0.00 0.00 0.00 87 1013.9
20260507031016 49 113 1.7 5.2 0.00 0.00 0.00 87 1013.9
20260507030016 49 113 1.7 4.3 0.00 0.00 0.00 87 1013.9
20260507025017 49 68 1.7 3.5 0.00 0.00 0.00 87 1014.0
20260507024015 49 113 0.9 3.5 0.00 0.00 0.00 87 1014.0
20260507023016 49 0.0 2.6 0.00 0.00 0.00 87 1014.0
20260507022015 49 0.0 0.0 0.00 0.00 0.00 87 1014.0